King Salmon, AK

10:12 PM AKDT on August 18, 2017 (GMT -0800)
King Salmon

Weather History for PAKN - May, 2013

Change the Weather History Date:

Saturday, May 11, 2013

  Actual Average Record
Temperature  
Mean Temperature 48 °F 43 °F  
Max Temperature 58 °F 52 °F 72 °F (2014)
Min Temperature 37 °F 34 °F 19 °F (1965)
Degree Days  
Heating Degree Days 17 22  
Month to date heating degree days 288 260  
Since 1 July heating degree days 10584 10085  
Cooling Degree Days 0 0  
Month to date cooling degree days 0 0  
Year to date cooling degree days 0 0  
Moisture  
Dew Point 35 °F    
Average Humidity 0    
Maximum Humidity 0    
Minimum Humidity 0    
Precipitation  
Precipitation 0.00 in 0.04 in 0.81 in (1988)
Month to date precipitation 0.18 0.40  
Year to date precipitation 6.21 3.85  
Snow  
Snow 0.00 in 0.00 in - ()
Month to date snowfall 0.6 0.4  
Since 1 July snowfall 75.1 46.2  
Snow Depth 0.00 in    
Sea Level Pressure  
Sea Level Pressure 29.76 in    
Wind  
Wind Speed 9 mph (North)    
Max Wind Speed 25 mph    
Max Gust Speed 33 mph    
Visibility 10 miles    
Events      
T = Trace of Precipitation, MM = Missing Value Source: NWS Daily Summary

Daily Weather History Graph

Daily Weather History Graph

Search for Another Location

Airport or City:

Trip Planner

Search our weather history database for the weather conditions in past years. The results will help you decide how hot, cold, wet, or windy it might be!

Date:

Astronomy

May. 11, 2013 Rise Set
Actual Time 6:05 AM AKDT 10:41 PM AKDT
Civil Twilight 5:10 AM AKDT 11:38 PM AKDT
Nautical Twilight 3:32 AM AKDT 1:19 AM AKDT
Astronomical Twilight Sun does not set Sun does not set
Moon 7:14 AM AKDT (5/11) No Moon Set
Length of Visible Light 18h 27m
Length of Day
16h 36m
Waxing Crescent, 3% of the Moon is Illuminated
May 11
Waxing Crescent
May 17
First Quarter
May 24
Full
May 31
Last Quarter
Jun 8
New

Hourly Weather History & Observations

Time (AKDT) Temp. Windchill Dew Point Humidity Pressure Visibility Wind Dir Wind Speed Gust Speed Precip Events Conditions
12:54 AM 44.1 °F 41.5 °F 35.1 °F 71% 29.92 in 10.0 mi North 4.6 mph - N/A   Scattered Clouds
1:54 AM 43.0 °F 40.3 °F 35.1 °F 74% 29.91 in 10.0 mi NNW 4.6 mph - N/A   Overcast
2:54 AM 42.1 °F 38.4 °F 34.0 °F 73% 29.90 in 10.0 mi NNW 5.8 mph - N/A   Overcast
3:54 AM 41.0 °F 36.4 °F 33.1 °F 73% 29.88 in 10.0 mi NNW 6.9 mph - N/A   Overcast
4:54 AM 39.9 °F - 33.1 °F 77% 29.87 in 10.0 mi Calm Calm - N/A   Overcast
5:54 AM 37.9 °F - 33.1 °F 83% 29.86 in 10.0 mi Calm Calm - N/A   Overcast
6:54 AM 37.9 °F - 33.1 °F 83% 29.84 in 10.0 mi Calm Calm - N/A   Overcast
7:54 AM 37.9 °F - 33.1 °F 83% 29.83 in 10.0 mi Calm Calm - N/A   Overcast
8:54 AM 39.9 °F - 34.0 °F 79% 29.82 in 10.0 mi Calm Calm - N/A   Overcast
9:54 AM 43.0 °F 41.3 °F 33.1 °F 68% 29.81 in 10.0 mi NE 3.5 mph - N/A   Overcast
10:54 AM 46.0 °F - 34.0 °F 63% 29.79 in 10.0 mi Calm Calm - N/A   Overcast
11:54 AM 48.0 °F - 35.1 °F 61% 29.77 in 10.0 mi NNE 4.6 mph - N/A   Overcast
12:54 PM 52.0 °F - 37.0 °F 57% 29.75 in 10.0 mi North 4.6 mph - N/A   Mostly Cloudy
1:54 PM 55.9 °F - 37.9 °F 51% 29.73 in 10.0 mi North 13.8 mph - 0.00 in   Mostly Cloudy
2:54 PM 55.9 °F - 37.9 °F 51% 29.71 in 10.0 mi NNW 11.5 mph 23.0 mph N/A   Mostly Cloudy
3:54 PM 57.0 °F - 37.9 °F 49% 29.69 in 10.0 mi North 15.0 mph 23.0 mph N/A   Mostly Cloudy
4:54 PM 55.9 °F - 37.0 °F 49% 29.67 in 10.0 mi NNW 17.3 mph 26.5 mph N/A   Mostly Cloudy
5:54 PM 55.9 °F - 36.0 °F 47% 29.66 in 10.0 mi North 20.7 mph 29.9 mph N/A   Scattered Clouds
6:54 PM 54.0 °F - 36.0 °F 51% 29.65 in 10.0 mi North 25.3 mph 32.2 mph N/A   Scattered Clouds
7:54 PM 53.1 °F - 36.0 °F 52% 29.65 in 10.0 mi North 21.9 mph 28.8 mph N/A   Scattered Clouds
8:54 PM 51.1 °F - 34.0 °F 52% 29.65 in 10.0 mi NNW 21.9 mph 27.6 mph N/A   Scattered Clouds
9:54 PM 45.0 °F 38.2 °F 34.0 °F 65% 29.65 in 10.0 mi NNW 15.0 mph - N/A   Scattered Clouds
10:54 PM 42.1 °F 34.9 °F 32.0 °F 67% 29.66 in 10.0 mi NNW 13.8 mph - N/A   Scattered Clouds
11:54 PM 39.0 °F 31.4 °F 30.9 °F 73% 29.67 in 10.0 mi NNW 12.7 mph - N/A   Scattered Clouds